Home > Time Zones > World Clock > Weather > France > Pau > Past weeks

Flag for France Weather past 2 weeks in Pau, France

Now
73 °F

Sunny.


Feels Like: 77 °F
Forecast: 61 / 76 °F
Wind: 1 mph from North

Location: Pau Airport

Current Time: Oct 20, 2014 at 12:03:46 PM

Latest Report: Oct 20, 2014 at 11:30 AM


Visibility: 10 mi

Pressure: 30.15 "Hg

Humidity: 57%

Dew point: 57 °F

Location of PauLocation

Historic Weather in Pau — Graph

°F

Pau temperature yesterday

Maximum temperature yesterday: 84 °F (at 4:00 PM)
Minimum temperature yesterday: 57 °F (at 8:00 AM)
Average temperature yesterday: 69 °F

Past Weeks' High & Low Weather Summary

 TemperatureHumidityPressure
High86 °F (Oct 18, 4:00 PM)100% (Oct 9, 10:00 AM)30.18 "Hg (Oct 9, 10:00 AM)
Low48 °F (Oct 6, 1:30 AM)29% (Oct 18, 4:30 PM)29.59 "Hg (Oct 12, 6:30 AM)
Average64 °F76%29.87 "Hg
* Reported Oct 5 11:00 AM — Oct 20 11:00 AM, Pau, Weather by CustomWeather, © 2014

Note: Actual official high and low records may vary slightly from our data, if they occured in-between our weather recording intervals... More about our weather records

Advertising

Pau weather history for previous 24 hours

 ConditionsComfort  
Time TempWeatherWind HumidityBarometerVisibility
11:00 AM
Oct 20
70 °FSunny.3 mph64%30.15 "Hg10 mi
10:30 AM66 °FSunny.2 mph73%30.15 "Hg10 mi
10:00 AM61 °FSunny.2 mph83%30.12 "Hg10 mi
9:30 AM59 °FSunny.5 mph82%30.12 "Hg10 mi
9:00 AM57 °FClear.7 mph82%30.12 "Hg10 mi
8:30 AM54 °FClear.2 mph94%30.12 "Hg10 mi
8:00 AM55 °FClear.2 mph88%30.12 "Hg10 mi
7:30 AM57 °FClear.2 mph82%30.12 "Hg10 mi
7:00 AM57 °FClear.3 mph82%30.12 "Hg10 mi
5:00 AM59 °FClear.5 mph82%30.12 "HgN/A
4:30 AM59 °FClear.5 mph82%30.12 "HgN/A
4:00 AM57 °FClear.2 mph88%30.15 "HgN/A
3:30 AM59 °FClear.3 mph88%30.15 "HgN/A
3:00 AM59 °FClear.2 mph88%30.15 "HgN/A
2:30 AM59 °FClear.3 mph88%30.15 "HgN/A
2:00 AM59 °FClear.2 mph88%30.15 "HgN/A
1:30 AM61 °FClear.2 mph83%30.15 "HgN/A
1:00 AM61 °FClear.5 mph83%30.15 "HgN/A
12:30 AM61 °FClear.3 mph83%30.15 "HgN/A
12:00 AM61 °FClear.2 mph88%30.15 "HgN/A
11:30 PM
Oct 19
63 °FClear.6 mph83%30.15 "HgN/A
11:00 PM63 °FClear.3 mph83%30.15 "HgN/A
10:30 PM61 °FClear.3 mph83%30.15 "HgN/A
10:00 PM63 °FClear.No wind83%30.15 "HgN/A
9:30 PM63 °FClear.2 mph83%30.15 "HgN/A
9:00 PM64 °FClear.No wind78%30.15 "HgN/A
8:30 PM66 °FClear.No wind68%30.15 "HgN/A
8:00 PM68 °FMild.1 mph69%30.15 "HgN/A
7:30 PM72 °FClear.2 mph61%30.12 "HgN/A
7:00 PM77 °FSunny.2 mph47%30.12 "Hg10 mi
6:00 PM81 °FPassing clouds.6 mph42%30.12 "HgN/A
5:30 PM81 °FSunny.6 mph42%30.12 "Hg10 mi
5:00 PM81 °FPassing clouds.5 mph39%30.12 "HgN/A
4:30 PM82 °FPassing clouds.6 mph37%30.12 "HgN/A
4:00 PM84 °FPassing clouds.5 mph35%30.12 "HgN/A
3:30 PM82 °FPassing clouds.5 mph37%30.12 "HgN/A
3:00 PM82 °FPassing clouds.3 mph37%30.15 "HgN/A
2:30 PM82 °FPassing clouds.3 mph37%30.15 "HgN/A
2:00 PM81 °FPassing clouds.3 mph39%30.15 "HgN/A
1:30 PM81 °FPassing clouds.5 mph39%30.18 "HgN/A
1:00 PM79 °FPassing clouds.3 mph42%30.18 "HgN/A
12:30 PM79 °FSunny.3 mph45%30.18 "Hg10 mi
12:00 PM77 °FSunny.3 mph47%30.18 "Hg10 mi
Weather by CustomWeather, © 2014

See weather overviewHow to use our weather pages